Regional Weather Roundup
Issued by NWS

Home | Current Version | Previous Version | Text Only | Print | Product List | Glossary Off
Versions: 1 2 3 4 5 6 7 8 9 10 11 12 13 14 15 16 17 18 19 20 21 22 23 24 25 26 27 28 29 30 31 32 33 34 35 36 37 38 39 40 41 42 43 44 45 46 47 48 49 50

000
ASUS43 KIND 241809
RWRIN

WEATHER ROUNDUP FOR INDIANA
NATIONAL WEATHER SERVICE INDIANAPOLIS IN
200 PM EDT FRI OCT 24 2014

NOTE: "FAIR" INDICATES FEW OR NO CLOUDS BELOW 12,000 FEET WITH NO
SIGNIFICANT WEATHER AND/OR OBSTRUCTIONS TO VISIBILITY.

* - STATION DOES NOT REPORT WEATHER SUCH AS PRECIPITATION OR FOG.

+ - STATION NOT QUALITY CONTROLLED BY THE NATIONAL WEATHER SERVICE.
    USE DATA WITH CAUTION...ESPECIALLY DEWPOINT AND RELATIVE
    HUMIDITY OBSERVATIONS.

INZ001>003-010>013-019-020-241900-
NORTHWEST INDIANA

CITY           SKY/WX    TMP DP  RH WIND       PRES   REMARKS
GARY /AIRPORT/ PTSUNNY   64  50  59 S5        30.03F
KNOX *+        MOSUNNY   63  49  61 W6        30.02F
LA PORTE +     CLOUDY    64  52  63 S8        30.02F
6HR MIN TEMP:  51; 6HR MAX TEMP:  64;

MICHIGAN CITY+ PTSUNNY   63  46  55 W5        30.02F
MONTICELLO +   PTSUNNY   64  54  68 SW7       30.04F
RENSSELAER +   MOSUNNY   64  54  68 SW14      30.04F
VALPARAISO     MOSUNNY   62  50  64 SW9       30.03F
6HR MIN TEMP:  50; 6HR MAX TEMP:  63;


$$

LMZ046-743>745-241900-
SOUTHERN LAKE MICHIGAN

STATION/POSITION TIME  TEMP WIND        PRES
                       AIR  DIR/SP/G
                 (UTC) (F)  (DEG/KT/KT) (MB)
MICHIGAN CITY    1800   57  270/  5/  6   N/A

$$

INZ004-005-014>016-021>024-241900-
NORTH CENTRAL INDIANA

CITY           SKY/WX    TMP DP  RH WIND       PRES   REMARKS
ELKHART        SUNNY     63  48  59 S6        30.02F
GOSHEN         SUNNY     60  49  66 S7        30.03F
6HR MIN TEMP:  47; 6HR MAX TEMP:  61;

LOGANSPORT +   SUNNY     63  50  63 SW6       30.06F
PERU/GRISSOM   SUNNY     62  57  83 SW7       30.04F
6HR MIN TEMP:  47; 6HR MAX TEMP:  62; 6HR PCP:  0.10;

ROCHESTER +    MOSUNNY   64  52  63 SW6       30.04F
SOUTH BEND     CLOUDY    62  50  64 SW8       30.03F
6HR MIN TEMP:  50; 6HR MAX TEMP:  62;

WARSAW +       SUNNY     61  48  63 S3        30.04F

$$

INZ006>009-017-018-025>027-241900-
NORTHEAST INDIANA

CITY           SKY/WX    TMP DP  RH WIND       PRES   REMARKS
ANGOLA *+      CLOUDY    57  48  72 SW5       30.03F
AUBURN +       CLOUDY    55  45  67 S3        30.06F
FORT WAYNE     CLOUDY    58  47  66 SW5       30.06F
6HR MIN TEMP:  41; 6HR MAX TEMP:  58;

HUNTINGTON +   PTSUNNY   59  50  70 W3        30.05F
6HR MIN TEMP:  40; 6HR MAX TEMP:  60;


$$

INZ028-029-035-036-043>045-051>053-241900-
WEST CENTRAL INDIANA

CITY           SKY/WX    TMP DP  RH WIND       PRES   REMARKS
GREENCASTLE +  SUNNY     63  50  63 SW3       30.08F
LAFAYETTE      SUNNY     63  52  67 SW8       30.05F
6HR MIN TEMP:  47; 6HR MAX TEMP:  63;

TERRE HAUTE    SUNNY     65  51  60 S3        30.07F
6HR MIN TEMP:  48; 6HR MAX TEMP:  65;


$$

INZ030>032-037>040-046>048-054>057-064-065-241900-
CENTRAL INDIANA

CITY           SKY/WX    TMP DP  RH WIND       PRES   REMARKS
CP ATTERBURY + MOSUNNY   64  45  48 W6        30.08F HAZE
COLUMBUS       SUNNY     63  45  51 SW6       30.08F
FRANKFORT +    HAZE      64  51  61 S8        30.08F VSB 1
GREENWOOD *+   CLOUDY    61  45  55 W3        30.08
INDIANAPOLIS   PTSUNNY   58  49  72 VRB3      30.07F
6HR MIN TEMP:  40; 6HR MAX TEMP:  59;

-EAGLE CREEK   MOSUNNY   61  50  67 CALM      30.06F
6HR MIN TEMP:  41; 6HR MAX TEMP:  60; 6HR PCP: TRACE;

KOKOMO *+      MOSUNNY   63  52  67 SW6       30.06F
MARION +       CLOUDY    60  46  61 W6        30.06F
MT COMFORT *+  CLOUDY    63  36  36 W7        30.07F
SHELBYVILLE    PTSUNNY   67  46  47 W9        30.07
6HR MIN TEMP:  36; 6HR MAX TEMP:  67;

ZIONSVILLE +   PTSUNNY   62  49  64 S7        30.07F
6HR MIN TEMP:  38; 6HR MAX TEMP:  62;


$$

INZ033-034-041-042-049-050-058-059-241900-
EAST CENTRAL INDIANA

CITY           SKY/WX    TMP DP  RH WIND       PRES   REMARKS
MUNCIE         CLOUDY    62  44  51 W7        30.06F
6HR MIN TEMP:  43; 6HR MAX TEMP:  63;


$$

INZ060-061-067>069-081>083-085>088-241900-
SOUTHWEST INDIANA

CITY           SKY/WX    TMP DP  RH WIND       PRES   REMARKS
EVANSVILLE     SUNNY     65  47  52 S5        30.10F
6HR MIN TEMP:  49; 6HR MAX TEMP:  65;

HUNTINGBURG *+ SUNNY     63  46  55 W6        30.09F
6HR MIN TEMP:  43; 6HR MAX TEMP:  63;

WASHINGTON +   SUNNY     65  47  53 SW5       30.08F
6HR MIN TEMP:  46; 6HR MAX TEMP:  65;


$$

INZ062-063-066-070>080-084-089>092-241900-
SOUTH CENTRAL AND SOUTHEAST INDIANA

CITY           SKY/WX    TMP DP  RH WIND       PRES   REMARKS
BLOOMINGTON    MOSUNNY   63  48  58 VRB7      30.08F
6HR MIN TEMP:  40; 6HR MAX TEMP:  63; 6HR PCP: TRACE;

SEYMOUR +      PTSUNNY   66  45  45 W5        30.08F

$$




USA.gov is the U.S. government's official web portal to all federal, state and local government web resources and services.